VA5EVR-13 Weather Reports


time (UTC)temp
F
wind
direction
speed
knots
gust
knots
rain 1hr
in
rain 24hr
in
rain mn
in
humidity
%
barometer
mb
20220813152012 83 112 7.8 7.8 0.00 0.00 0.00 49 1019.4
20220813151011 83 112 7.0 7.0 0.00 0.00 0.00 51 1019.5
20220813150011 82 22 0.0 0.0 0.00 0.00 0.00 50 1019.5
20220813145012 81 22 0.0 0.0 0.00 0.00 0.00 52 1019.5
20220813144012 79 22 0.0 0.0 0.00 0.00 0.00 52 1019.6
20220813143012 78 22 0.0 0.0 0.00 0.00 0.00 56 1019.7
20220813142012 76 22 0.0 0.0 0.00 0.00 0.00 63 1019.7
20220813141011 74 22 0.0 0.0 0.00 0.00 0.00 83 1019.9
20220813140011 70 22 0.0 0.0 0.00 0.00 0.00 83 1020.1
20220813135012 68 22 0.0 0.0 0.00 0.00 0.00 83 1020.1
20220813134011 64 22 0.0 0.0 0.00 0.00 0.00 83 1020.5
20220813133012 63 22 0.0 0.0 0.00 0.00 0.00 83 1020.6
20220813132012 63 22 0.0 0.0 0.00 0.00 0.00 83 1020.7
20220813131011 63 22 0.0 0.0 0.00 0.00 0.00 83 1020.9
20220813130012 62 22 0.0 0.0 0.00 0.00 0.00 83 1020.9
20220813125012 62 22 0.0 0.0 0.00 0.00 0.00 83 1021.0
20220813124011 62 22 0.0 0.0 0.00 0.00 0.00 83 1020.9
20220813123011 62 22 0.0 0.0 0.00 0.00 0.00 88 1020.8
20220813122011 63 22 0.0 0.0 0.00 0.00 0.00 91 1020.5
20220813121012 64 22 0.0 0.0 0.00 0.00 0.00 89 1020.7
20220813120011 65 22 0.0 0.0 0.00 0.00 0.00 89 1020.7
20220813115012 66 22 0.0 0.0 0.00 0.00 0.00 87 1020.7
20220813114012 67 22 0.0 0.0 0.00 0.00 0.00 77 1020.7
20220813113012 66 22 0.0 0.0 0.00 0.00 0.00 79 1020.6
20220813112011 65 22 0.0 0.0 0.00 0.00 0.00 85 1020.2
20220813111012 64 22 0.0 0.0 0.00 0.00 0.00 88 1020.0
20220813110011 63 22 0.0 0.0 0.00 0.00 0.00 91 1019.7
20220813105011 63 22 0.0 0.0 0.00 0.00 0.00 92 1019.4
20220813104011 63 22 0.0 0.0 0.00 0.00 0.00 92 1019.3
20220813103011 63 22 0.0 0.0 0.00 0.00 0.00 92 1019.4
20220813102011 64 22 0.0 0.0 0.00 0.00 0.00 92 1019.5
20220813101012 64 22 0.0 0.0 0.00 0.00 0.00 92 1019.4
20220813100011 65 22 0.0 0.0 0.00 0.00 0.00 92 1019.4
20220813095011 65 22 0.0 0.0 0.00 0.00 0.00 91 1019.4
20220813094012 65 22 0.0 0.0 0.00 0.00 0.00 90 1019.3
20220813093011 66 22 0.0 0.0 0.00 0.00 0.00 89 1019.1
20220813092012 66 22 0.0 0.0 0.00 0.00 0.00 89 1019.0
20220813091012 66 22 0.0 0.0 0.00 0.00 0.00 89 1019.0
20220813090011 66 22 0.0 0.0 0.00 0.00 0.00 89 1019.0
20220813085011 67 22 0.0 0.0 0.00 0.00 0.00 88 1019.0
20220813084012 67 22 0.0 0.0 0.00 0.00 0.00 89 1019.1
20220813083012 68 22 0.0 0.0 0.00 0.00 0.00 89 1019.1
20220813082012 68 22 0.0 0.0 0.00 0.00 0.00 88 1019.2
20220813081011 69 22 0.0 0.0 0.00 0.00 0.00 88 1019.2
20220813080012 69 22 0.0 0.0 0.00 0.00 0.00 87 1019.4
20220813075011 69 22 0.0 0.0 0.00 0.00 0.00 86 1019.5
20220813074011 69 22 0.0 0.0 0.00 0.00 0.00 85 1019.7
20220813073011 69 22 0.0 0.0 0.00 0.00 0.00 85 1019.8
20220813072011 69 22 0.0 0.0 0.00 0.00 0.00 86 1019.7
20220813071012 69 22 0.0 0.0 0.00 0.00 0.00 87 1019.7
20220813070011 69 22 0.0 0.0 0.00 0.00 0.00 87 1019.8
20220813065012 70 22 0.0 0.0 0.00 0.00 0.00 86 1019.6
20220813064013 70 22 0.0 0.0 0.00 0.00 0.00 86 1019.6
20220813063011 70 22 0.0 0.0 0.00 0.00 0.00 85 1019.6
20220813062012 71 22 0.0 0.0 0.00 0.00 0.00 85 1019.6
20220813061011 71 22 0.0 0.0 0.00 0.00 0.00 85 1019.3
20220813060012 71 22 0.0 0.0 0.00 0.00 0.00 85 1019.2
20220813055011 71 22 0.0 0.0 0.00 0.00 0.00 84 1019.2
20220813054011 70 22 0.0 0.0 0.00 0.00 0.00 84 1019.4
20220813053012 70 22 0.0 0.0 0.00 0.00 0.00 83 1019.3
20220813052012 69 22 0.0 0.0 0.00 0.00 0.00 82 1019.4
20220813051012 69 22 0.0 0.0 0.00 0.00 0.00 82 1019.3
20220813050011 69 22 0.0 0.0 0.00 0.00 0.00 82 1019.3
20220813045012 69 22 0.0 0.0 0.00 0.00 0.00 82 1019.5
20220813044012 69 22 0.0 0.0 0.00 0.00 0.00 80 1019.5
20220813043012 70 22 0.0 0.0 0.00 0.00 0.00 77 1019.6
20220813042012 70 22 0.0 0.0 0.00 0.00 0.00 75 1019.5
20220813041012 71 22 0.0 0.0 0.00 0.00 0.00 72 1019.6
20220813040012 70 22 0.0 0.0 0.00 0.00 0.00 67 1019.7
20220813035011 70 22 0.0 0.0 0.00 0.00 0.00 66 1019.6
20220813034011 71 22 0.0 0.0 0.00 0.00 0.00 67 1019.6
20220813033012 72 22 0.0 0.0 0.00 0.00 0.00 67 1019.5
20220813032012 73 22 0.0 0.0 0.00 0.00 0.00 65 1019.4
20220813031012 73 22 2.6 2.6 0.00 0.00 0.00 61 1019.4
20220813030012 74 315 3.5 3.5 0.00 0.00 0.00 60 1019.5
20220813025012 75 315 3.5 3.5 0.00 0.00 0.00 60 1019.3
20220813024011 76 338 3.5 3.5 0.00 0.00 0.00 58 1019.4
20220813023012 77 0 1.7 1.7 0.00 0.00 0.00 58 1019.2
20220813022012 78 0 2.6 2.6 0.00 0.00 0.00 57 1019.2
20220813021011 79 45 2.6 2.6 0.00 0.00 0.00 57 1019.0
20220813020011 80 22 3.5 3.5 0.00 0.00 0.00 55 1019.0
20220813015011 81 22 4.3 4.3 0.00 0.00 0.00 53 1018.9
20220813014012 82 22 4.3 4.3 0.00 0.00 0.00 52 1019.0
20220813013012 83 22 5.2 5.2 0.00 0.00 0.00 50 1018.9
20220813012012 84 45 6.1 6.1 0.00 0.00 0.00 49 1018.8
20220813011012 85 0 4.3 4.3 0.00 0.00 0.00 47 1018.8
20220813010012 85 270 4.3 4.3 0.00 0.00 0.00 42 1018.7
20220813005012 85 315 7.8 7.8 0.00 0.00 0.00 39 1018.7
20220813004012 85 22 7.8 7.8 0.00 0.00 0.00 39 1018.6
20220813003012 85 338 6.1 6.1 0.00 0.00 0.00 38 1018.6
20220813002017 85 338 4.3 4.3 0.00 0.00 0.00 37 1018.6
20220813001011 86 315 5.2 5.2 0.00 0.00 0.00 38 1018.6
20220813000011 86 292 7.0 7.0 0.00 0.00 0.00 37 1018.6
20220812235012 86 338 5.2 5.2 0.00 0.00 0.00 38 1018.7
20220812234012 86 292 7.8 7.8 0.00 0.00 0.00 38 1018.8
20220812233012 86 338 7.0 7.0 0.00 0.00 0.00 38 1018.8
20220812232017 86 225 7.0 7.0 0.00 0.00 0.00 38 1018.9
20220812231012 86 292 3.5 3.5 0.00 0.00 0.00 38 1018.9
20220812230011 86 315 3.5 3.5 0.00 0.00 0.00 38 1019.0
20220812225011 86 270 3.5 3.5 0.00 0.00 0.00 41 1019.1
20220812224012 87 292 7.0 7.0 0.00 0.00 0.00 41 1019.1
20220812223012 88 292 4.3 4.3 0.00 0.00 0.00 41 1019.1
20220812222013 88 22 4.3 4.3 0.00 0.00 0.00 40 1019.2
20220812221013 88 270 5.2 5.2 0.00 0.00 0.00 41 1019.4
20220812220013 89 248 5.2 5.2 0.00 0.00 0.00 40 1019.4
20220812215013 89 270 14.8 14.8 0.00 0.00 0.00 38 1019.4
20220812214013 88 112 3.5 3.5 0.00 0.00 0.00 41 1019.4
20220812213013 88 292 3.5 3.5 0.00 0.00 0.00 42 1019.4
20220812212012 88 338 4.3 4.3 0.00 0.00 0.00 44 1019.5
20220812211013 88 292 7.8 7.8 0.00 0.00 0.00 42 1019.6
20220812210013 88 225 7.0 7.0 0.00 0.00 0.00 43 1019.7
20220812205012 88 202 4.3 4.3 0.00 0.00 0.00 45 1019.8
20220812204013 88 202 7.8 7.8 0.00 0.00 0.00 43 1019.8
20220812203011 87 135 4.3 4.3 0.00 0.00 0.00 43 1019.9
20220812202011 86 90 1.7 1.7 0.00 0.00 0.00 46 1019.9
20220812201011 86 202 7.8 7.8 0.00 0.00 0.00 47 1020.1
20220812200011 86 158 7.8 7.8 0.00 0.00 0.00 45 1020.1
20220812195012 86 202 2.6 2.6 0.00 0.00 0.00 48 1020.2
20220812194012 85 248 4.3 4.3 0.00 0.00 0.00 48 1020.3
20220812192012 84 270 3.5 3.5 0.00 0.00 0.00 49 1020.4
20220812191012 83 202 1.7 1.7 0.00 0.00 0.00 49 1020.6
20220812190012 83 270 3.5 3.5 0.00 0.00 0.00 52 1020.4
20220812185011 83 202 7.0 7.0 0.00 0.00 0.00 52 1020.5
20220812184012 82 112 4.3 4.3 0.00 0.00 0.00 52 1020.5
20220812183011 82 180 5.2 5.2 0.00 0.00 0.00 54 1020.5
20220812182012 82 112 5.2 5.2 0.00 0.00 0.00 56 1020.6
20220812181012 81 112 7.0 7.0 0.00 0.00 0.00 59 1020.6
20220812180012 82 90 7.0 7.0 0.00 0.00 0.00 58 1020.7
20220812175011 82 112 3.5 3.5 0.00 0.00 0.00 60 1020.8
20220812174013 82 112 7.0 7.0 0.00 0.00 0.00 60 1021.0
20220812173012 82 158 7.8 7.8 0.00 0.00 0.00 60 1021.0
20220812172012 81 112 3.5 3.5 0.00 0.00 0.00 59 1020.9
20220812171012 81 158 7.0 7.0 0.00 0.00 0.00 58 1020.9
20220812170012 81 135 6.1 6.1 0.00 0.00 0.00 58 1020.9
20220812165012 80 45 4.3 4.3 0.00 0.00 0.00 52 1020.9
20220812164013 80 22 2.6 2.6 0.00 0.00 0.00 54 1020.9
20220812163012 79 292 4.3 4.3 0.00 0.00 0.00 55 1021.0
20220812162017 79 45 6.1 6.1 0.00 0.00 0.00 56 1021.0
20220812161012 79 45 3.5 3.5 0.00 0.00 0.00 59 1020.8
20220812160012 79 315 4.3 4.3 0.00 0.00 0.00 61 1020.8
20220812155012 79 68 5.2 5.2 0.00 0.00 0.00 62 1020.9
20220812153012 80 135 1.7 1.7 0.00 0.00 0.00 66 1020.6